Weather History for KALO - June, 2013

Change the Weather History Date:

Saturday, June 22, 2013

  Actual Average Record
Temperature  
Mean Temperature 80 °F 72 °F  
Max Temperature 90 °F 83 °F 98 °F (1988)
Min Temperature 69 °F 61 °F 40 °F (1902)
Degree Days  
Heating Degree Days 0 0  
Month to date heating degree days 38 23  
Since 1 June heating degree days 38 23  
Since 1 July heating degree days 7271 7027  
Cooling Degree Days 15 7  
Month to date cooling degree days 104 113  
Year to date cooling degree days 157 169  
Since 1 June cooling degree days 104 113  
Growing Degree Days 30 (Base 50)    
Moisture  
Dew Point 70 °F    
Average Humidity 75    
Maximum Humidity 93    
Minimum Humidity 56    
Precipitation  
Precipitation 0.01 in 0.17 in 2.68 in (1964)
Month to date precipitation 2.95 3.60  
Year to date precipitation 26.53 15.72  
Snow  
Snow 0.00 in 0.00 in - ()
Month to date snowfall 0.0 0.0  
Since 1 June snowfall 0.0 0.0  
Since 1 July snowfall 50.0 35.3  
Snow Depth 0.00 in    
Sea Level Pressure  
Sea Level Pressure 29.89 in    
Wind  
Wind Speed 13 mph (SSE)    
Max Wind Speed 29 mph    
Max Gust Speed 37 mph    
Visibility 10 miles    
Events Rain , Thunderstorm    
T = Trace of Precipitation, MM = Missing Value Source: NWS Daily Summary

Daily Weather History Graph

Daily Weather History Graph

Search for Another Location

Airport or City:

Trip Planner

Search our weather history database for the weather conditions in past years. The results will help you decide how hot, cold, wet, or windy it might be!

Date:

Astronomy

Jun. 22, 2013 Rise Set
Actual Time 5:32 AM CDT 8:50 PM CDT
Civil Twilight 4:57 AM CDT 9:25 PM CDT
Nautical Twilight 4:12 AM CDT 10:11 PM CDT
Astronomical Twilight 3:16 AM CDT 11:06 PM CDT
Moon 8:04 PM CDT (6/22) 4:46 AM CDT (6/22)
Length of Visible Light 16h 28m
Length of Day
15h 18m
Waxing Gibbous, 99% of the Moon is Illuminated
Jun 22
Waxing Gibbous
Jun 23
Full
Jun 29
Last Quarter
Jul 8
New
Jul 15
First Quarter

Hourly Weather History & Observations

Time (CDT) Temp. Heat Index Dew Point Humidity Pressure Visibility Wind Dir Wind Speed Gust Speed Precip Events Conditions
12:54 AM 73.0 °F - 70.0 °F 90% 29.87 in 10.0 mi ESE 5.8 mph - N/A   Clear
1:54 AM 72.0 °F - 70.0 °F 93% 29.88 in 10.0 mi East 3.5 mph - N/A   Mostly Cloudy
2:54 AM 72.0 °F - 70.0 °F 93% 29.89 in 10.0 mi ESE 4.6 mph - N/A   Partly Cloudy
3:54 AM 75.0 °F - 72.0 °F 90% 29.87 in 10.0 mi SSE 9.2 mph - N/A   Clear
4:42 AM 75.2 °F - 71.6 °F 89% 29.90 in 10.0 mi Calm Calm - N/A   Overcast
4:54 AM 75.0 °F - 71.1 °F 87% 29.89 in 10.0 mi Calm Calm - N/A   Overcast
5:52 AM 73.4 °F - 71.6 °F 94% 29.94 in 7.0 mi NW 8.1 mph - 0.00 in Rain , Thunderstorm Light Rain
5:54 AM 73.9 °F - 72.0 °F 93% 29.92 in 7.0 mi NW 5.8 mph - 0.00 in Rain , Thunderstorm Light Rain
6:16 AM 73.4 °F - 71.6 °F 94% 29.92 in 7.0 mi NW 8.1 mph - 0.00 in Rain Light Rain
6:38 AM 71.6 °F - 68.0 °F 88% 29.94 in 10.0 mi NNW 12.7 mph - 0.01 in   Mostly Cloudy
6:45 AM 69.8 °F - 68.0 °F 94% 29.95 in 10.0 mi NNW 9.2 mph - 0.01 in   Overcast
6:54 AM 69.1 °F - 66.9 °F 93% 29.91 in 10.0 mi North 13.8 mph - 0.01 in   Mostly Cloudy
7:11 AM 69.8 °F - 66.2 °F 88% 29.93 in 10.0 mi NNE 8.1 mph - N/A   Scattered Clouds
7:34 AM 69.8 °F - 68.0 °F 94% 29.93 in 10.0 mi ENE 24.2 mph 28.8 mph N/A   Mostly Cloudy
7:42 AM 69.8 °F - 66.2 °F 88% 29.95 in 10.0 mi ENE 28.8 mph 36.8 mph N/A   Mostly Cloudy
7:54 AM 70.0 °F - 66.0 °F 87% 29.93 in 10.0 mi East 24.2 mph 34.5 mph N/A   Overcast
8:54 AM 70.0 °F - 64.9 °F 84% 29.95 in 10.0 mi East 16.1 mph 26.5 mph N/A   Overcast
9:54 AM 72.0 °F - 66.9 °F 84% 29.96 in 10.0 mi SE 15.0 mph - N/A   Overcast
10:54 AM 78.1 °F - 70.0 °F 76% 29.96 in 10.0 mi SSE 12.7 mph 19.6 mph N/A   Scattered Clouds
11:54 AM 82.9 °F 89.4 °F 73.9 °F 74% 29.95 in 10.0 mi South 15.0 mph 20.7 mph N/A   Scattered Clouds
12:01 PM 82.4 °F 88.2 °F 73.4 °F 74% 29.97 in 10.0 mi SSW 13.8 mph 20.7 mph N/A   Mostly Cloudy
12:13 PM 84.2 °F 89.6 °F 71.6 °F 66% 29.97 in 10.0 mi South 18.4 mph - N/A   Mostly Cloudy
12:54 PM 84.9 °F 90.7 °F 72.0 °F 65% 29.89 in 10.0 mi South 18.4 mph - N/A   Partly Cloudy
1:30 PM 86.0 °F 90.4 °F 69.8 °F 58% 29.85 in 10.0 mi South 23.0 mph 29.9 mph N/A   Clear
1:54 PM 88.0 °F 93.8 °F 71.1 °F 57% 29.83 in 10.0 mi South 23.0 mph 32.2 mph N/A   Clear
2:54 PM 90.0 °F 96.4 °F 71.1 °F 54% 29.85 in 10.0 mi SSW 19.6 mph 25.3 mph N/A   Clear
3:54 PM 90.0 °F 96.9 °F 72.0 °F 55% 29.84 in 10.0 mi South 17.3 mph 21.9 mph N/A   Clear
4:54 PM 90.0 °F 97.9 °F 73.0 °F 57% 29.84 in 10.0 mi SSW 12.7 mph - N/A   Partly Cloudy
5:54 PM 88.0 °F 94.7 °F 72.0 °F 59% 29.83 in 10.0 mi South 10.4 mph - N/A   Scattered Clouds
6:54 PM 89.1 °F 95.0 °F 71.1 °F 55% 29.82 in 10.0 mi SSW 11.5 mph - N/A   Scattered Clouds
7:54 PM 86.0 °F 91.5 °F 71.1 °F 61% 29.81 in 10.0 mi SSW 11.5 mph - N/A   Clear
8:54 PM 86.0 °F 91.5 °F 71.1 °F 61% 29.82 in 10.0 mi SSW 15.0 mph - N/A   Clear
9:54 PM 82.9 °F 87.5 °F 71.1 °F 67% 29.84 in 10.0 mi South 10.4 mph - N/A   Clear
10:54 PM 82.0 °F 86.3 °F 71.1 °F 69% 29.85 in 10.0 mi South 11.5 mph - N/A   Clear
11:54 PM 82.0 °F 86.7 °F 72.0 °F 71% 29.86 in 10.0 mi South 15.0 mph - N/A   Clear